Location: Moscow Pond
(43.6842°N, 73.2366°W)
Time: 00:09:23
(UTC+00:00)

IRS-1D - Pass Details

Date: 08 November 2025
Orbit: 735 x 812 km, 98.8° (Epoch: 04 December)

Event Time Altitude Azimuth Distance (km) Brightness Sun altitude
Rises 09:35:47 0° 17° (NNE) 3,204 6.9 -22.4°
Reaches altitude 10° 09:38:08 10° 21° (NNE) 2,268 6.1 -21.9°
Maximum altitude 09:43:03 61° 102° (ESE) 839 3.9 -21.0°
Drops below altitude 10° 09:47:53 10° 182° (S) 2,233 5.9 -20.2°
Sets 09:50:11 0° 186° (S) 3,151 6.7 -19.8°
